K4BLL Weather Reports


time (UTC)temp
C
wind
direction
speed
KPH
gust
KPH
rain 1hr
cm
rain 24hr
cm
rain mn
cm
humidity
%
barometer
mb
20260906161559 33 165 0.0 3.2 0.00 0.79 0.00 63 1011.6
20260906160057 32 132 0.0 1.6 0.00 0.79 0.00 65 1011.7
20260906154555 32 121 3.2 8.0 0.00 0.79 0.00 64 1011.9
20260906153153 32 140 0.0 3.2 0.00 0.79 0.00 66 1012.0
20260906151558 31 147 0.0 1.6 0.00 0.79 0.00 69 1012.0
20260906150049 31 148 0.0 1.6 0.00 0.79 0.00 70 1012.1
20260906144550 31 134 0.0 3.2 0.00 0.79 0.00 70 1012.0
20260906143047 30 139 0.0 1.6 0.00 0.79 0.00 74 1012.0
20260906141544 29 148 0.0 0.0 0.00 0.79 0.00 77 1012.0
20260906140037 28 144 0.0 1.6 0.00 0.79 0.00 78 1012.2
20260906134537 27 141 0.0 1.6 0.00 0.79 0.00 80 1012.2
20260906133029 26 155 0.0 0.0 0.00 0.79 0.00 83 1012.2
20260906131525 25 155 0.0 0.0 0.00 0.79 0.00 86 1012.3
20260906130021 24 155 0.0 0.0 0.00 0.79 0.00 89 1012.2
20260906124520 23 155 0.0 0.0 0.00 0.79 0.00 95 1012.4
20260906123034 23 155 0.0 0.0 0.00 0.79 0.00 95 1012.3
20260906121519 22 155 0.0 0.0 0.00 0.79 0.00 95 1012.3
20260906120017 22 155 0.0 0.0 0.00 0.79 0.00 95 1012.1
20260906114516 22 155 0.0 0.0 0.00 0.79 0.00 95 1012.1
20260906113015 22 155 0.0 0.0 0.00 0.79 0.00 94 1012.0
20260906111514 22 155 0.0 0.0 0.00 0.79 0.00 94 1012.0
20260906110012 22 155 0.0 0.0 0.00 0.79 0.00 94 1011.8
20260906104514 22 155 0.0 0.0 0.00 0.79 0.00 94 1011.7
20260906103011 22 155 0.0 0.0 0.00 0.79 0.00 94 1011.5
20260906101521 22 155 0.0 0.0 0.00 0.79 0.00 94 1011.6
20260906100011 22 155 0.0 0.0 0.00 0.79 0.00 94 1011.5
20260906094510 22 155 0.0 0.0 0.00 0.79 0.00 93 1011.4
20260906093013 22 155 0.0 0.0 0.00 0.79 0.00 93 1011.4
20260906091508 22 155 0.0 0.0 0.00 0.79 0.00 93 1011.3
20260906090024 22 155 0.0 0.0 0.00 0.79 0.00 93 1011.1
20260906084507 22 155 0.0 0.0 0.00 0.79 0.00 94 1011.2
20260906083006 22 150 0.0 0.0 0.00 0.79 0.00 94 1011.1
20260906081610 22 149 0.0 0.0 0.00 0.79 0.00 93 1010.9
20260906080004 22 149 0.0 0.0 0.00 0.79 0.00 93 1010.8
20260906074503 22 149 0.0 0.0 0.00 0.79 0.00 93 1010.9
20260906073002 22 149 0.0 0.0 0.00 0.79 0.00 92 1010.7
20260906071559 23 149 0.0 0.0 0.00 0.79 0.00 91 1011.1
20260906070058 23 149 0.0 1.6 0.00 0.79 0.00 91 1011.1
20260906064557 23 165 0.0 0.0 0.00 0.79 0.00 93 1011.3
20260906063056 23 165 0.0 0.0 0.00 0.79 0.00 93 1011.3
20260906061555 23 165 0.0 0.0 0.00 0.79 0.00 92 1011.5
20260906060053 23 165 0.0 0.0 0.00 0.79 0.00 91 1011.5
20260906054550 23 165 0.0 0.0 0.00 0.79 0.00 91 1011.5
20260906053050 23 165 0.0 0.0 0.00 0.79 0.00 89 1011.6
20260906051559 24 165 0.0 0.0 0.00 0.79 0.00 88 1011.6
20260906050101 23 158 0.0 1.6 0.00 0.79 0.00 91 1011.5
20260906044550 23 149 0.0 0.0 0.00 0.79 0.00 90 1011.7
20260906043052 23 149 0.0 0.0 0.00 0.79 0.00 90 1011.8
20260906041541 24 149 0.0 0.0 0.00 0.79 0.00 89 1011.6
20260906040039 24 149 0.0 0.0 0.00 0.79 0.79 89 1011.4
20260906034541 25 149 0.0 0.0 0.00 0.79 0.79 88 1011.5
20260906033037 25 149 0.0 1.6 0.00 0.79 0.79 87 1011.8
20260906031545 25 150 0.0 1.6 0.00 0.79 0.79 89 1011.9
20260906030036 25 172 0.0 0.0 0.00 0.79 0.79 86 1012.2
20260906024535 25 172 0.0 0.0 0.00 0.79 0.79 85 1012.4
20260906023035 25 172 0.0 0.0 0.00 0.79 0.79 84 1012.5
20260906021534 26 173 0.0 3.2 0.00 0.79 0.79 84 1012.4
20260906020135 26 124 0.0 1.6 0.00 0.79 0.79 85 1012.2
20260906014533 26 158 0.0 1.6 0.00 0.79 0.79 85 1012.1
20260906013053 25 142 0.0 0.0 0.00 0.79 0.79 87 1011.6
20260906011534 25 141 0.0 0.0 0.00 0.79 0.79 87 1011.1
20260906010032 25 142 0.0 0.0 0.00 0.79 0.79 87 1010.8
20260906004532 26 142 0.0 0.0 0.00 0.79 0.79 86 1010.5
20260906003030 26 142 0.0 0.0 0.00 0.79 0.79 84 1010.6
20260906001530 26 142 0.0 0.0 0.00 0.79 0.79 84 1010.5
20260906000028 26 142 0.0 0.0 0.00 0.79 0.79 83 1010.5
20260905234527 27 142 0.0 0.0 0.00 0.79 0.79 79 1010.6
20260905233026 27 142 0.0 0.0 0.00 0.79 0.79 78 1010.6
20260905231528 27 142 0.0 0.0 0.00 0.79 0.79 75 1010.6
20260905230025 27 142 0.0 0.0 0.00 0.79 0.79 75 1010.8
20260905224524 27 142 0.0 0.0 0.00 0.79 0.79 75 1010.8
20260905223023 27 131 0.0 0.0 0.00 0.79 0.79 74 1010.9
20260905221523 27 131 0.0 1.6 0.00 0.79 0.79 73 1010.9
20260905220022 27 113 0.0 1.6 0.00 0.79 0.79 77 1010.8
20260905214523 26 157 0.0 0.0 0.00 0.79 0.79 84 1010.9
20260905213020 26 157 0.0 0.0 0.00 0.79 0.79 86 1011.1
20260905211520 26 162 0.0 0.0 0.00 0.79 0.79 87 1011.2
20260905210026 26 163 0.0 0.0 0.00 0.79 0.79 87 1011.2
20260905204516 25 163 0.0 3.2 0.00 0.79 0.79 87 1011.1
20260905203014 25 169 0.0 0.0 0.00 0.79 0.79 89 1011.3
20260905201512 25 169 0.0 0.0 0.00 0.79 0.79 90 1011.5
20260905200010 24 181 0.0 1.6 0.00 0.79 0.79 89 1011.8
20260905194508 24 189 0.0 3.2 0.00 0.79 0.79 89 1012.0
20260905193006 23 292 3.2 8.0 0.03 0.79 0.79 91 1013.0
20260905191505 24 296 4.8 12.9 0.05 0.79 0.79 90 1013.2
20260905190007 24 280 4.8 9.7 0.08 0.79 0.79 89 1013.3
20260905184602 25 125 0.0 11.3 0.10 0.79 0.79 87 1013.3
20260905183001 25 145 0.0 1.6 0.41 0.76 0.76 90 1013.0
20260905181600 25 150 0.0 0.0 0.71 0.71 0.71 90 1013.4
20260905180057 25 124 0.0 3.2 0.71 0.71 0.71 86 1013.8
20260905174602 26 181 1.6 9.7 0.69 0.69 0.69 81 1014.0
20260905173057 30 135 1.6 9.7 0.41 0.41 0.41 73 1013.9
20260905171624 33 124 0.0 3.2 0.00 0.00 0.00 65 1013.4
20260905164552 32 118 1.6 8.0 0.00 0.00 0.00 68 1013.6
20260905163054 31 136 0.0 3.2 0.00 0.00 0.00 72 1013.7